Flight Track Log - Related Links

Times and Time Zones

All times are in EDT time to prevent confusion due to time zone crossing. See the FLG3776 flight status page for this flight to view local times or setup timezone preferences in your user account.

Time Position Orientation Groundspeed Altitude Reporting Facility
EDT Latitude Longitude Course Direction KTS MPH feet Rate Location/Type
Wed 08:56:21 PM 44.9056 -93.2264 117° Southeast 174 200 2,300  Level FAA TRACON SMA TRACON (SMA)
Wed 08:56:41 PM 44.9256 -93.2233 North 184 212 3,200 2,850 Climbing FAA TRACON SMA TRACON (SMA)
Wed 08:57:01 PM 44.9422 -93.2200 North 196 226 4,200 2,462 Climbing FAA TRACON SMA TRACON (SMA)
Wed 08:57:20 PM 44.9611 -93.2164 North 216 249 4,800 2,250 Climbing FAA TRACON SMA TRACON (SMA)
Wed 08:57:41 PM 44.9869 -93.2089 12° North 243 280 5,700 2,488 Climbing FAA TRACON SMA TRACON (SMA)
Wed 08:58:01 PM 45.0031 -93.1853 46° Northeast 276 318 6,500 2,550 Climbing FAA TRACON SMA TRACON (SMA)
Wed 08:58:21 PM 45.0064 -93.1503 82° East 299 344 7,400 3,231 Climbing FAA TRACON SMA TRACON (SMA)
Wed 08:58:40 PM 45.0036 -93.1044 95° East 304 350 8,600 3,150 Climbing FAA TRACON SMA TRACON (SMA)
Wed 08:59:00 PM 44.6964 -92.6059 118° Southeast  Level Estimated
Wed 08:59:01 PM 45.0006 -93.0675 97° East 308 354 9,500  Level FAA TRACON SMA TRACON (SMA)
Wed 08:59:21 PM 44.9919 -93.0322 109° East 315 362 10,300 2,100 Climbing FAA TRACON SMA TRACON (SMA)
Wed 08:59:41 PM 44.9711 -92.9917 126° Southeast 330 380 10,900 1,950 Climbing FAA TRACON SMA TRACON (SMA)
Wed 09:00:00 PM 44.6495 -92.4525 115° Southeast  Level Estimated
Wed 09:00:01 PM 44.9528 -92.9586 128° Southeast 343 395 11,600  Level FAA TRACON SMA TRACON (SMA)
Wed 09:00:41 PM 44.9122 -92.8803 126° Southeast 362 417 13,000 2,066 Climbing FAA TRACON SMA TRACON (SMA)
Wed 09:01:00 PM 44.5872 -92.3020 117° Southeast  Level FlightAware Approximate
Wed 09:01:02 PM 44.8936 -92.8442 126° Southeast 366 421 13,700  Level FAA TRACON SMA TRACON (SMA)
Wed 09:01:21 PM 44.8756 -92.8083 125° Southeast 366 421 14,500 2,308 Climbing FAA TRACON SMA TRACON (SMA)
Wed 09:01:41 PM 44.8572 -92.7722 126° Southeast 368 423 15,200 2,100 Climbing FAA TRACON SMA TRACON (SMA)
Wed 09:02:01 PM 44.8336 -92.7272 126° Southeast 370 426 15,900 2,049 Climbing FAA TRACON SMA TRACON (SMA)
Wed 09:02:22 PM 44.8153 -92.6908 125° Southeast 374 430 16,600 2,700 Climbing FAA TRACON SMA TRACON (SMA)
Wed 09:02:41 PM 44.7928 -92.6453 125° Southeast 372 428 17,700 2,462 Climbing FAA TRACON SMA TRACON (SMA)
Wed 09:03:01 PM 44.7739 -92.6100 127° Southeast 367 422 18,200 1,350 Climbing FAA TRACON SMA TRACON (SMA)
Wed 09:03:21 PM 44.7547 -92.5739 127° Southeast 371 427 18,600 1,500 Climbing FAA TRACON SMA TRACON (SMA)
Wed 09:03:41 PM 44.7356 -92.5372 126° Southeast 376 433 19,200 1,950 Climbing FAA TRACON SMA TRACON (SMA)
Wed 09:04:01 PM 44.7111 -92.4922 127° Southeast 378 435 19,900 1,650 Climbing FAA TRACON SMA TRACON (SMA)
Wed 09:04:21 PM 44.6925 -92.4550 125° Southeast 378 435 20,300 1,050 Climbing FAA TRACON SMA TRACON (SMA)
Wed 09:04:41 PM 44.6672 -92.4081 127° Southeast 388 447 20,600 1,050 Climbing FAA TRACON SMA TRACON (SMA)
Wed 09:05:01 PM 44.6481 -92.3692 125° Southeast 394 453 21,000 1,050 Climbing FAA TRACON SMA TRACON (SMA)
Wed 09:05:21 PM 44.6281 -92.3303 126° Southeast 400 460 21,300 1,200 Climbing FAA TRACON SMA TRACON (SMA)
Wed 09:05:41 PM 44.6025 -92.2814 126° Southeast 404 465 21,800 1,350 Climbing FAA TRACON SMA TRACON (SMA)
Wed 09:06:01 PM 44.5828 -92.2411 124° Southeast 406 467 22,200 1,200 Climbing FAA TRACON SMA TRACON (SMA)
Wed 09:06:21 PM 44.5611 -92.2019 128° Southeast 410 472 22,600 1,200 Climbing FAA TRACON SMA TRACON (SMA)
Wed 09:06:41 PM 44.5350 -92.1519 126° Southeast 413 475 23,000 1,200 Climbing FAA TRACON SMA TRACON (SMA)
Wed 09:07:01 PM 44.5153 -92.1106 124° Southeast 415 478 23,400 1,171 Climbing FAA TRACON SMA TRACON (SMA)
Wed 09:07:22 PM 44.4939 -92.0703 127° Southeast 417 480 23,800 1,077 Climbing FAA TRACON SMA TRACON (SMA)
Wed 09:07:40 PM 44.4736 -92.0294 125° Southeast 419 482 24,100 1,231 Climbing FAA TRACON SMA TRACON (SMA)
Wed 09:08:01 PM 44.4472 -91.9786 126° Southeast 419 482 24,600 887 Climbing FAA TRACON SMA TRACON (SMA)
Wed 09:09:35 PM 44.3475 -91.7961 127° Southeast 422 486 25,800 654 Climbing Minneapolis Center
Wed 09:10:37 PM 44.2914 -91.6456 117° Southeast 434 499 26,300 532 Climbing Minneapolis Center
Wed 09:11:39 PM 44.2192 -91.4600 118° Southeast 449 517 26,900 339 Climbing Minneapolis Center
Wed 09:12:41 PM 44.1583 -91.3014 118° Southeast 461 531 27,000 48 Climbing Minneapolis Center
Wed 09:13:43 PM 44.0944 -91.1350 118° Southeast 475 547 27,000  Level Minneapolis Center
Wed 09:14:45 PM 44.0314 -90.9697 118° Southeast 482 555 27,000  Level Minneapolis Center
Wed 09:15:47 PM 43.9669 -90.8044 118° Southeast 488 562 27,000  Level Minneapolis Center
Wed 09:16:49 PM 43.9019 -90.6389 119° Southeast 490 564 27,000  Level Minneapolis Center
Wed 09:17:51 PM 43.8342 -90.4347 115° Southeast 494 568 27,000  Level Minneapolis Center
Wed 09:18:53 PM 43.7819 -90.2583 112° Southeast 495 570 27,000  Level Minneapolis Center
Wed 09:19:55 PM 43.7286 -90.0811 113° Southeast 498 573 27,000  Level Minneapolis Center
Wed 09:20:57 PM 43.6747 -89.9064 113° Southeast 495 570 27,000  Level Minneapolis Center
Wed 09:21:59 PM 43.6219 -89.7297 112° Southeast 497 572 27,000  Level Minneapolis Center
Wed 09:24:03 PM 43.5050 -89.3506 113° Southeast 497 572 27,000  Level Minneapolis Center
Wed 09:25:05 PM 43.4503 -89.1761 113° Southeast 497 572 27,000  Level Minneapolis Center
Wed 09:26:07 PM 43.3953 -89.0033 114° Southeast 496 571 27,000  Level Minneapolis Center
Wed 09:27:08 PM 43.3411 -88.8308 113° Southeast 494 568 27,000  Level Minneapolis Center
Wed 09:28:10 PM 43.2783 -88.6306 113° Southeast 496 571 27,000  Level Minneapolis Center
Wed 09:29:12 PM 43.2228 -88.4611 114° Southeast 496 571 27,000  Level Minneapolis Center
Wed 09:30:14 PM 43.1669 -88.2900 114° Southeast 496 571 27,000  Level Minneapolis Center
Wed 09:31:24 PM 43.1014 -88.0869 114° Southeast 501 577 27,000  Level Chicago Center
Wed 09:32:25 PM 43.0450 -87.9150 114° Southeast 499 574 27,000  Level Chicago Center
Wed 09:33:27 PM 42.9792 -87.7150 114° Southeast 497 572 27,000  Level Chicago Center
Wed 09:34:29 PM 42.9219 -87.5442 115° Southeast 497 572 27,000  Level Chicago Center
Wed 09:35:31 PM 42.8647 -87.3719 114° Southeast 499 574 27,000 -390 Level Chicago Center
Wed 09:36:32 PM 42.8117 -87.2119 114° Southeast 498 573 26,200 -1,366 Descending Chicago Center
Wed 09:37:34 PM 42.7558 -87.0478 115° Southeast 483 556 24,200 -1,306 Descending Chicago Center
Wed 09:38:36 PM 42.6992 -86.8850 115° Southeast 480 552 23,500 -878 Descending Chicago Center
Wed 09:39:37 PM 42.6314 -86.6881 115° Southeast 484 557 22,400 -1,220 Descending Chicago Center
Wed 09:40:39 PM 42.5781 -86.5308 115° Southeast 466 536 21,000 -677 Descending Chicago Center
Wed 09:41:41 PM 42.5250 -86.3781 115° Southeast 454 522 21,000 -829 Level Chicago Center
Wed 09:42:42 PM 42.4706 -86.2239 116° Southeast 457 526 19,300 -2,341 Descending Chicago Center
Wed 09:43:44 PM 42.4200 -86.0822 116° Southeast 428 493 16,200 -3,048 Descending Chicago Center
Wed 09:44:46 PM 42.3861 -85.9542 110° East 369 425 13,000 -3,268 Descending Chicago Center
Wed 09:45:47 PM 42.3581 -85.8147 105° East 328 377 9,500 -3,122 Descending Chicago Center
Wed 09:46:49 PM 42.3906 -85.7192 65° Northeast 295 339 6,600 -2,488 Descending Chicago Center
Wed 09:47:50 PM 42.4303 -85.6328 58° Northeast 278 320 4,400 -2,164 Descending Chicago Center

Login

Don't have an account? Register now (free) for customized features, flight alerts, and more!